User: anonymous   Login
Location: Weston
(26.1283°N, 80.4075°W)
Time: 09:07:02
(UTC-04:00)
Language:

H-2A R/B - Orbit

View from above orbital plane
View from above orbital plane
View from above satellite
View from above satellite

Ground track
Ground track

The orbit data is extracted from the following two-line orbital elements,

1 26899U 01038B   16211.56714626  .00000704  00000-0  28146-3 0  9999
2 26899  28.0091 196.3108 7107728 334.3392   3.0004  2.47178247128520
Epoch (UTC): 29 July 2016 13:36:41
Eccentricity: 0.7107728
inclination: 28.0091°
perigee height: 305 km
apogee height: 33151 km
right ascension of ascending node: 196.3108°
argument of perigee: 334.3392°
revolutions per day: 2.47178247
mean anomaly at epoch: 3.0004°
orbit number at epoch: 12852

The dashed part of the orbit path shows where the satellite is in the earth's shadow,  

DLR